TimeCST,TemperatureF,Dew PointF,Humidity,Sea Level PressureIn,VisibilityMPH,Wind Direction,Wind SpeedMPH,Gust SpeedMPH,PrecipitationIn,Events,Conditions,WindDirDegrees,DateUTC
12:53 AM,27.0,17.1,66,30.20,10.0,North,23.0,35.7,N/A,,Mostly Cloudy,350,2012-02-11 06:53:00
1:53 AM,26.1,14.0,60,30.23,10.0,North,19.6,32.2,N/A,,Overcast,350,2012-02-11 07:53:00
2:53 AM,25.0,14.0,63,30.26,10.0,NNW,13.8,21.9,N/A,,Mostly Cloudy,340,2012-02-11 08:53:00
3:53 AM,24.1,10.9,57,30.29,10.0,North,17.3,34.5,N/A,,Scattered Clouds,350,2012-02-11 09:53:00
4:53 AM,24.1,12.0,60,30.33,10.0,North,15.0,23.0,N/A,,Partly Cloudy,350,2012-02-11 10:53:00
5:53 AM,23.0,17.1,78,30.36,1.8,NNW,13.8,21.9,0.00,Snow,Light Snow,340,2012-02-11 11:53:00
6:08 AM,23.0,17.6,80,30.36,3.0,NNW,11.5,19.6,0.00,Snow,Light Snow,340,2012-02-11 12:08:00
6:26 AM,23.0,17.6,80,30.37,1.8,North,11.5,-,0.00,Snow,Light Snow,350,2012-02-11 12:26:00
6:36 AM,21.2,17.6,86,30.38,1.2,NNW,11.5,-,0.00,Snow,Light Snow,340,2012-02-11 12:36:00
6:41 AM,21.2,17.6,86,30.38,2.0,NNW,12.7,-,0.00,Snow,Light Snow,340,2012-02-11 12:41:00
6:50 AM,21.2,15.8,80,30.39,8.0,NNW,11.5,19.6,0.00,Snow,Light Snow,330,2012-02-11 12:50:00
6:53 AM,21.9,16.0,78,30.40,8.0,NNW,11.5,19.6,0.00,Snow,Light Snow,330,2012-02-11 12:53:00
7:05 AM,23.0,17.6,80,30.39,9.0,NNW,13.8,-,0.01,,Overcast,340,2012-02-11 13:05:00
7:22 AM,23.0,15.8,74,30.40,10.0,NNW,13.8,21.9,0.01,,Overcast,340,2012-02-11 13:22:00
7:51 AM,23.0,10.4,59,30.42,10.0,NNW,17.3,26.5,0.01,,Overcast,330,2012-02-11 13:51:00
7:53 AM,21.9,10.0,60,30.43,10.0,NNW,13.8,26.5,0.01,,Overcast,330,2012-02-11 13:53:00
8:53 AM,21.9,10.0,60,30.45,10.0,NW,15.0,24.2,N/A,,Mostly Cloudy,320,2012-02-11 14:53:00
9:53 AM,24.1,10.9,57,30.48,10.0,NNW,16.1,23.0,N/A,,Clear,330,2012-02-11 15:53:00
10:53 AM,26.1,8.1,47,30.49,10.0,NW,15.0,20.7,N/A,,Clear,320,2012-02-11 16:53:00
11:53 AM,26.1,5.0,41,30.48,10.0,NNW,15.0,25.3,N/A,,Clear,330,2012-02-11 17:53:00
12:53 PM,27.0,5.0,39,30.47,10.0,NNW,17.3,27.6,N/A,,Clear,330,2012-02-11 18:53:00
1:53 PM,28.9,5.0,36,30.48,10.0,NW,15.0,24.2,N/A,,Clear,320,2012-02-11 19:53:00
2:53 PM,30.0,6.1,36,30.48,10.0,NNW,9.2,24.2,N/A,,Clear,330,2012-02-11 20:53:00
3:53 PM,28.9,6.1,38,30.48,10.0,NW,13.8,20.7,N/A,,Clear,310,2012-02-11 21:53:00
4:53 PM,28.0,5.0,38,30.50,10.0,NW,13.8,-,N/A,,Clear,320,2012-02-11 22:53:00
5:53 PM,26.1,5.0,41,30.51,10.0,NW,9.2,-,N/A,,Clear,320,2012-02-11 23:53:00
6:53 PM,26.1,5.0,41,30.52,10.0,NNW,9.2,-,N/A,,Clear,330,2012-02-12 00:53:00
7:53 PM,25.0,6.1,45,30.53,10.0,NNW,9.2,-,N/A,,Clear,330,2012-02-12 01:53:00
8:53 PM,24.1,5.0,44,30.53,10.0,NW,5.8,-,N/A,,Clear,320,2012-02-12 02:53:00
9:53 PM,21.9,7.0,53,30.53,10.0,WNW,4.6,-,N/A,,Clear,300,2012-02-12 03:53:00
10:53 PM,21.9,7.0,53,30.53,10.0,WNW,4.6,-,N/A,,Clear,300,2012-02-12 04:53:00
11:53 PM,23.0,6.1,48,30.52,10.0,NNW,6.9,-,N/A,,Clear,330,2012-02-12 05:53:00